Theta_e
347 346 346 344 342 337 330 333 332 333 328 326 325 327 326 323 322 324 323 324 322 319
346 348 345 340 343 341 338 334 337 334 329 328 326 327 327 322 322 322 322 322 322 319
346 348 347 343 338 338 339 338 338 336 331 331 328 327 327 324 323 321 320 318 320 319
346 348 347 341 340 341 340 339 338 337 332 330 329 327 326 325 322 320 319 319 319 318
347 345 344 342 342 341 339 339 338 336 333 331 330 328 325 323 322 319 317 317 318 316
342 342 343 343 343 342 340 338 337 337 335 332 330 328 326 324 322 320 318 317 316 314
340 340 342 343 342 341 340 338 338 337 335 334 331 329 326 324 322 321 318 314 313 312
340 340 341 341 340 340 338 337 337 336 334 332 328 327 328 324 321 318 312 311 311 313
341 340 339 338 338 337 336 335 336 335 330 330 327 316 315 321 319 313 310 310 311 307
339 339 338 337 336 334 334 332 330 331 329 326 325 310 309 311 314 310 309 306 305 306
336 337 338 333 333 332 332 329 328 327 328 327 325 309 308 308 312 309 308 305 303 305
337 337 337 331 329 330 329 327 328 328 328 326 324 306 306 309 310 307 304 304 305 305
329 339 338 335 330 329 328 326 327 326 326 319 311 303 304 310 309 304 303 305 303 303
330 334 337 336 334 329 326 326 323 317 314 312 308 304 304 305 309 306 304 303 302 302
Wind_Speed
22 16 15 17 15 13 14 17 19 15 15 13 14 10 9 9 9 9 8 10 7 7
21 23 20 19 16 15 14 13 19 19 16 14 16 14 14 10 11 11 10 10 10 7
20 20 18 16 19 18 17 18 20 19 16 17 15 16 16 12 12 12 9 9 11 9
17 17 17 16 17 18 18 20 21 20 18 19 18 17 16 14 14 13 11 10 11 10
15 17 17 17 19 19 20 21 22 20 20 21 20 19 18 17 15 16 15 13 11 11
17 18 18 19 18 19 20 21 21 21 21 20 20 19 18 17 16 15 15 15 15 13
18 19 19 18 19 19 20 20 21 20 19 19 18 19 19 18 17 17 14 13 12 13
15 17 18 19 19 18 19 17 19 19 17 17 16 14 19 17 16 16 13 12 11 14
15 16 16 17 17 16 16 16 17 18 19 20 13 18 19 18 14 15 15 14 12 10
15 16 14 16 18 18 18 17 17 18 17 18 18 24 28 26 17 16 15 15 13 12
14 14 13 14 16 15 15 19 17 18 21 21 19 23 29 31 21 16 16 16 16 13
15 13 13 14 15 15 14 15 18 17 20 19 15 22 24 24 17 17 16 15 13 13
14 14 17 16 16 15 15 15 13 13 12 12 13 24 27 18 11 16 14 13 12 17
14 13 15 15 14 15 14 13 11 13 12 11 9 20 29 24 17 16 15 14 13 11
Wind_Direction
207 208 203 196 180 180 181 179 169 178 203 207 177 192 188 177 178 176 168 169 175 163
204 206 201 191 183 178 180 171 173 188 198 202 176 182 184 181 177 176 169 162 160 160
211 208 201 188 183 178 172 174 179 188 187 199 189 179 187 176 174 173 170 168 163 159
211 207 203 195 187 178 172 179 183 186 185 192 189 184 186 179 174 173 168 171 170 166
204 202 198 198 191 181 180 183 185 184 187 193 192 188 187 179 177 177 176 174 174 169
206 204 203 201 194 185 185 186 187 186 189 194 190 189 189 188 179 181 180 178 182 172
213 208 207 206 198 192 189 187 189 190 187 189 188 187 187 185 182 185 179 174 175 175
219 213 211 205 201 194 197 199 193 185 181 184 184 185 188 183 178 173 166 171 167 180
232 219 213 204 200 195 190 192 192 190 187 183 181 177 173 174 173 170 166 169 172 163
244 231 215 204 198 193 192 184 186 184 186 190 186 169 165 167 167 167 166 162 160 162
251 235 222 202 200 196 192 185 185 185 183 188 200 179 171 163 156 162 167 163 158 149
272 242 217 201 199 195 189 192 191 190 193 193 182 166 162 160 157 151 155 153 148 142
305 250 229 212 199 189 194 193 191 190 194 178 142 161 162 161 157 151 147 147 141 148
288 273 235 222 204 193 190 183 164 133 115 109 149 159 164 169 168 162 158 161 164 169